Weather History for Camden, AR

Change the Weather History Date:

Wednesday, November 16, 2011

  Actual Average Record
Temperature  
Mean Temperature 54 °F -  
Max Temperature 62 °F 64 °F 87 °F (1941)
Min Temperature 46 °F 38 °F 20 °F (1940)
Degree Days  
Heating Degree Days 11    
Growing Degree Days 4 (Base 50)    
Moisture  
Dew Point 53 °F    
Average Humidity 82    
Maximum Humidity 100    
Minimum Humidity 54    
Precipitation  
Precipitation 1.06 in - - ()
Sea Level Pressure  
Sea Level Pressure 29.90 in    
Wind  
Wind Speed 6 mph (NNE)    
Max Wind Speed 16 mph    
Max Gust Speed 23 mph    
Visibility 7 miles    
Events Rain    
Averages and records for this station are not official NWS values.
T = Trace of Precipitation, MM = Missing Value Source: NWS Daily Summary

Daily Weather History Graph

Daily Weather History Graph

Search for Another Location

Airport:

Trip Planner

Search our weather history database for the weather conditions in past years. The results will help you decide how hot, cold, wet, or windy it might be!

Date:

Astronomy

Nov. 16, 2011 Rise Set
Actual Time 6:43 AM CST 5:07 PM CST
Civil Twilight 6:17 AM CST 5:34 PM CST
Nautical Twilight 5:46 AM CST 6:04 PM CST
Astronomical Twilight 5:17 AM CST 6:33 PM CST
Moon 10:19 PM CST 11:21 AM CST
Length of Visible Light 11h 17m
Length of Day
10h 24m
Waning Gibbous, 70% of the Moon is Illuminated
Nov 16
Waning Gibbous
Nov 18
Last Quarter
Nov 25
New
Dec 2
First Quarter
Dec 10
Full

Hourly Weather History & Observations

Time (CST) Temp. Windchill Dew Point Humidity Pressure Visibility Wind Dir Wind Speed Gust Speed Precip Events Conditions
12:15 AM 62.6 °F - 62.6 °F 100% 29.75 in 6.0 mi NW 5.8 mph - N/A   Overcast
12:35 AM 62.6 °F - 62.6 °F 100% 29.74 in 3.0 mi NNW 6.9 mph - 0.12 in Rain Light Rain
12:55 AM 62.6 °F - 60.8 °F 94% 29.75 in 2.5 mi NW 8.1 mph - 0.23 in Rain Heavy Rain
1:15 AM 62.6 °F - 60.8 °F 94% 29.74 in 1.0 mi Calm Calm - 0.29 in Rain Heavy Rain
1:35 AM 62.6 °F - 60.8 °F 94% 29.73 in 1.5 mi ENE 3.5 mph - 0.48 in Rain Heavy Rain
1:55 AM 62.6 °F - 60.8 °F 94% 29.73 in 3.0 mi NE 3.5 mph - 0.55 in Rain Heavy Rain
2:15 AM 62.6 °F - 60.8 °F 94% 29.73 in 3.0 mi Calm Calm - 0.04 in Rain Heavy Rain
2:35 AM 62.6 °F - 60.8 °F 94% 29.74 in 7.0 mi Calm Calm - 0.05 in Rain Light Rain
2:55 AM 62.6 °F - 60.8 °F 94% 29.74 in 3.0 mi Calm Calm - 0.05 in Rain Light Rain
3:15 AM 62.6 °F - 60.8 °F 94% 29.74 in 1.2 mi North 4.6 mph - 0.15 in Rain Heavy Rain
3:35 AM 62.6 °F - 60.8 °F 94% 29.74 in 5.0 mi Calm Calm - 0.17 in Rain Light Rain
3:55 AM 62.6 °F - 60.8 °F 94% 29.74 in 2.0 mi Calm Calm - 0.21 in Rain Rain
4:15 AM 62.6 °F - 60.8 °F 94% 29.74 in 3.0 mi Calm Calm - N/A Rain Light Rain
4:35 AM 62.6 °F - 60.8 °F 94% 29.74 in 4.0 mi Calm Calm - N/A   Overcast
4:55 AM 62.6 °F - 60.8 °F 94% 29.74 in 4.0 mi Calm Calm - 0.01 in   Overcast
5:15 AM 62.6 °F - 60.8 °F 94% 29.75 in 3.0 mi Calm Calm - N/A   Overcast
5:35 AM 62.6 °F - 60.8 °F 94% 29.76 in 3.0 mi Calm Calm - N/A   Overcast
6:15 AM 62.6 °F - 60.8 °F 94% 29.79 in 1.8 mi NNE 10.4 mph - N/A Rain Light Rain
6:35 AM 62.6 °F - 59.0 °F 88% 29.80 in 8.0 mi NNE 13.8 mph - N/A Rain Light Rain
6:55 AM 60.8 °F - 57.2 °F 88% 29.82 in 9.0 mi NNE 10.4 mph - N/A Rain Light Rain
7:15 AM 60.8 °F - 57.2 °F 88% 29.83 in 6.0 mi NNE 12.7 mph 20.7 mph N/A Rain Light Rain
7:35 AM 59.0 °F - 57.2 °F 94% 29.85 in 10.0 mi NNE 9.2 mph - N/A   Overcast
7:55 AM 59.0 °F - 57.2 °F 94% 29.86 in 10.0 mi NNE 10.4 mph - N/A   Overcast
8:15 AM 60.8 °F - 57.2 °F 88% 29.86 in 10.0 mi NE 8.1 mph - N/A   Overcast
8:35 AM 60.8 °F - 57.2 °F 88% 29.88 in 10.0 mi NE 9.2 mph - N/A   Overcast
8:55 AM 60.8 °F - 57.2 °F 88% 29.88 in 10.0 mi NNE 6.9 mph - N/A   Overcast
9:15 AM 60.8 °F - 57.2 °F 88% 29.89 in 10.0 mi NNE 9.2 mph - N/A   Overcast
9:35 AM 60.8 °F - 57.2 °F 88% 29.89 in 10.0 mi NE 10.4 mph - N/A   Overcast
10:15 AM 60.8 °F - 57.2 °F 88% 29.91 in 10.0 mi NE 10.4 mph - N/A   Overcast
10:35 AM 60.8 °F - 55.4 °F 82% 29.91 in 10.0 mi ENE 9.2 mph - N/A   Overcast
10:55 AM 62.6 °F - 55.4 °F 77% 29.92 in 10.0 mi NE 9.2 mph - N/A   Overcast
11:15 AM 62.6 °F - 55.4 °F 77% 29.93 in 10.0 mi NNE 8.1 mph - N/A   Overcast
11:35 AM 59.0 °F - 55.4 °F 88% 29.93 in 9.0 mi North 10.4 mph 16.1 mph N/A   Overcast
11:55 AM 59.0 °F - 55.4 °F 88% 29.93 in 2.5 mi NNE 11.5 mph 19.6 mph N/A Rain Light Rain
12:15 PM 57.2 °F - 53.6 °F 88% 29.94 in 5.0 mi NNE 13.8 mph 23.0 mph N/A Rain Light Rain
12:35 PM 57.2 °F - 53.6 °F 88% 29.94 in 9.0 mi NE 10.4 mph - N/A   Overcast
12:55 PM 59.0 °F - 53.6 °F 82% 29.92 in 10.0 mi NE 10.4 mph 16.1 mph N/A   Overcast
1:15 PM 59.0 °F - 53.6 °F 82% 29.92 in 10.0 mi NNE 11.5 mph 16.1 mph N/A   Overcast
1:35 PM 59.0 °F - 51.8 °F 77% 29.93 in 10.0 mi NNE 10.4 mph - N/A   Overcast
1:55 PM 59.0 °F - 50.0 °F 72% 29.94 in 10.0 mi NNE 9.2 mph - N/A   Overcast
2:15 PM 59.0 °F - 50.0 °F 72% 29.95 in 10.0 mi NNE 6.9 mph - N/A   Overcast
2:35 PM 57.2 °F - 48.2 °F 72% 29.96 in 10.0 mi NE 5.8 mph - N/A   Overcast
2:55 PM 57.2 °F - 48.2 °F 72% 29.96 in 10.0 mi NNE 8.1 mph - N/A   Overcast
3:15 PM 57.2 °F - 50.0 °F 77% 29.96 in 10.0 mi NNE 8.1 mph - N/A   Overcast
3:35 PM 57.2 °F - 46.4 °F 67% 29.98 in 10.0 mi NNE 16.1 mph 19.6 mph N/A   Overcast
3:55 PM 57.2 °F - 46.4 °F 67% 29.99 in 10.0 mi NNE 12.7 mph - N/A   Overcast
4:15 PM 55.4 °F - 46.4 °F 72% 30.00 in 9.0 mi NNE 10.4 mph - N/A   Overcast
4:35 PM 55.4 °F - 44.6 °F 67% 30.01 in 10.0 mi NNE 11.5 mph - N/A   Overcast
4:55 PM 55.4 °F - 44.6 °F 67% 30.03 in 10.0 mi NNE 8.1 mph - N/A   Overcast
5:15 PM 55.4 °F - 41.0 °F 58% 30.04 in 10.0 mi North 9.2 mph 18.4 mph N/A Rain Light Rain
5:35 PM 55.4 °F - 39.2 °F 54% 30.05 in 10.0 mi NNE 12.7 mph 18.4 mph N/A   Overcast
5:55 PM 53.6 °F - 37.4 °F 54% 30.08 in 10.0 mi North 9.2 mph 23.0 mph N/A   Overcast
6:35 PM 51.8 °F - 39.2 °F 62% 30.10 in 10.0 mi North 8.1 mph - N/A   Overcast
6:55 PM 53.6 °F - 37.4 °F 54% 30.12 in 10.0 mi North 11.5 mph - N/A   Overcast
7:35 PM 51.8 °F - 37.4 °F 58% 30.15 in 10.0 mi NNE 9.2 mph - N/A   Overcast
7:55 PM 51.8 °F - 37.4 °F 58% 30.16 in 10.0 mi North 6.9 mph - N/A Rain Light Rain
8:15 PM 50.0 °F - 41.0 °F 71% 30.18 in 8.0 mi North 5.8 mph - N/A Rain Light Rain
8:55 PM 46.4 °F 42.9 °F 41.0 °F 81% 30.22 in 5.0 mi North 6.9 mph - 0.01 in Rain Rain
9:15 PM 46.4 °F - 41.0 °F 81% 30.23 in 9.0 mi Calm Calm - N/A Rain Light Rain
9:35 PM 46.4 °F - 41.0 °F 81% 30.23 in 10.0 mi Calm Calm - N/A   Overcast
9:55 PM 46.4 °F - 42.8 °F 87% 30.24 in 10.0 mi Calm Calm - N/A Rain Light Rain
10:15 PM 46.4 °F 42.9 °F 41.0 °F 81% 30.25 in 7.0 mi NNW 6.9 mph - N/A Rain Light Rain
10:35 PM 46.4 °F 43.5 °F 41.0 °F 81% 30.25 in 9.0 mi North 5.8 mph - N/A Rain Light Rain
10:55 PM 46.4 °F 44.3 °F 39.2 °F 76% 30.25 in 10.0 mi North 4.6 mph - N/A   Mostly Cloudy
11:15 PM 46.4 °F - 41.0 °F 81% 30.26 in 10.0 mi Calm Calm - N/A   Overcast
11:35 PM 44.6 °F - 41.0 °F 87% 30.26 in 10.0 mi Calm Calm - N/A   Mostly Cloudy
11:55 PM 44.6 °F - 41.0 °F 87% 30.26 in 10.0 mi Calm Calm - N/A   Partly Cloudy